Погода в Горнозаводском

Россия / Ставропольский край     44°01′34″N   43°56′34″E
темп.,
°C
ветер,
м/с
пор.,
м/с
влажн.,
%
обл.,
%
осадки,
мм/ч
давл.,
гПа
погр.,
м
26 июня, вс
вс2600:00+16зсз4790100 0.1 1009157
03:00+17зсз3587100 0.1 1009151
06:00+17сз3584100 0.0 1008172
09:00+23в2462100 0.0 1007732
12:00+23ююв3461100 0.2 1008821
15:00+21зюз4583100 1.1 1007240
18:00+20зсз5981100 0.0 1007251
21:00+18зсз6118779 0.0 1008268
27 июня, пн
пн2700:00+18зсз41089100 0.1 1009302
03:00+17зсз4109176 0.1 1009296
06:00+19зсз59851 0.0 1010324
09:00+23сз656631 0.0 1010888
12:00+27с3353100 0.1 10101660
15:00+23вюв1277100 1.2 1010109
18:00+24ююв2376100 4.1 101069
21:00+20з2292100 6.4 101145
28 июня, вт
вт2800:00+19вюв1293100 3.3 101256
03:00+18всв3485100 3.8 101190
06:00+19всв258261 0.0 1012159
09:00+23в345015 0.0 1012806
12:00+27всв44380 0.0 10111723
15:00+28всв543419 0.0 10112112
18:00+27всв463877 0.0 1012385
21:00+22св3942100 0.0 1013205
29 июня, ср
ср2900:00+20вюв2245100 0.0 101335
03:00+18св1150100 0.0 101311
06:00+19св235597 0.0 101495
09:00+25в34387 0.0 1013713
12:00+29вюв452928 0.0 10131781
15:00+30в462640 0.0 10122525
18:00+29всв2338100 0.0 101290
21:00+22в6127371 0.2 1014399
30 июня, чт
чт3000:00+20в5108045 0.1 1014366
03:00+17в3990100 0.1 1014308
06:00+18в48830 0.0 1015448
09:00+23вюв57511 0.0 10151117
12:00+27в56365 0.0 10141856
15:00+28в5533100 0.0 10132266
18:00+26всв3640100 0.0 1013285
21:00+22ссв0158100 0.0 101420